Temperature
25 25 25 25 24 24 24 23 23 23 23 23 22 21 20 18 18 17 16 15 15 14 13 12 12 11 11 10 10 9 9 9 9 9 9 9 8 8 8 8 9 9 9 9
25 25 25 24 24 24 23 23 23 23 23 23 21 20 19 18 17 16 15 15 14 13 12 11 11 10 10 9 9 8 8 8 8 8 8 8 8 8 8 8 8 8 8 8
25 25 24 24 24 23 23 24 23 22 22 22 21 19 18 17 16 15 14 13 13 12 11 11 10 9 9 8 8 8 7 7 7 7 7 7 7 7 7 7 7 7 7 7
25 24 23 24 24 24 23 23 23 22 22 21 20 18 17 17 15 14 13 12 12 11 10 10 9 9 8 8 7 7 7 7 7 6 6 6 6 6 6 6 7 7 7 7
25 25 25 24 23 23 22 22 22 21 21 20 19 18 19 17 14 13 12 11 11 10 10 9 9 8 7 7 7 7 7 6 6 6 6 6 6 6 6 6 6 6 6 6
24 23 24 24 23 22 22 22 21 21 20 19 18 18 19 15 13 12 11 11 10 9 9 9 8 7 7 7 6 6 6 6 6 5 5 5 5 5 5 5 6 6 6 6
24 24 25 24 23 22 22 22 20 19 19 18 17 17 15 14 13 12 11 10 10 9 8 8 7 7 6 6 6 6 6 5 5 5 5 5 5 5 5 5 5 5 6 6
24 23 24 23 23 22 22 20 19 18 18 17 16 15 14 13 12 11 10 10 9 9 8 7 7 6 6 6 6 5 5 5 5 5 5 5 5 5 5 5 5 5 5 5
24 24 23 22 22 21 19 19 18 18 17 16 15 15 14 12 12 11 10 9 9 8 8 7 7 6 6 6 5 5 5 5 5 5 5 5 5 5 5 5 5 5 5 5
23 24 23 22 21 20 19 18 17 17 16 15 14 14 13 12 11 10 10 9 8 8 7 7 6 6 6 6 5 5 5 5 5 5 5 5 5 5 5 5 5 5 5 5
23 24 23 21 20 20 18 17 17 16 15 14 13 13 12 11 11 10 9 9 8 7 7 7 6 6 6 6 5 5 5 5 6 6 6 5 5 5 5 5 5 5 5 5
24 24 23 22 20 19 18 17 16 15 15 14 13 12 11 11 10 9 9 8 8 7 7 6 6 6 6 6 6 5 6 6 6 6 6 6 6 6 6 5 5 5 5 5
23 22 22 20 19 18 17 17 16 15 14 13 12 12 11 10 10 9 9 8 7 7 7 6 6 6 6 6 6 6 6 6 6 6 6 6 6 6 6 6 5 5 5 5
20 20 20 19 19 17 17 16 15 14 14 13 12 11 10 10 9 9 8 8 7 7 7 6 6 6 6 6 6 6 6 6 6 6 6 6 6 6 6 6 6 5 5 5
20 19 20 19 18 17 16 16 15 15 14 13 12 11 10 9 9 9 8 7 7 7 7 6 6 6 6 6 6 6 6 6 6 6 6 6 6 6 6 6 6 6 6 6
20 19 19 18 18 17 16 16 15 15 14 12 12 11 10 9 9 9 8 7 7 7 6 6 6 6 6 6 6 6 6 6 6 6 7 7 7 6 6 6 6 6 6 6
20 19 19 18 18 17 16 16 15 14 13 12 11 10 10 9 9 9 8 7 7 6 6 6 6 6 6 6 6 6 6 7 7 7 7 7 7 7 7 7 6 6 6 6
20 20 19 19 18 17 16 15 14 13 12 11 11 10 9 9 8 8 7 7 7 7 6 6 6 6 6 6 6 6 7 7 7 7 7 7 7 7 7 7 7 7 6 6
19 19 19 18 17 16 16 15 14 13 12 11 10 10 9 9 8 7 7 7 7 7 7 7 7 7 6 6 6 7 7 7 7 7 7 7 7 7 7 7 7 7 7 7
18 18 18 17 16 16 15 14 13 12 11 10 10 9 9 9 8 7 7 7 6 6 6 7 7 7 6 6 7 7 7 7 7 8 8 8 8 8 8 8 8 8 7 7
18 18 17 17 16 15 14 13 12 12 11 10 10 9 9 8 8 7 7 7 6 6 7 7 6 6 7 7 7 7 7 7 7 7 8 8 8 8 8 8 8 8 8 8
17 17 17 16 15 15 14 13 12 12 11 10 10 9 9 8 8 8 7 6 6 7 7 7 6 6 7 7 7 7 7 7 7 7 8 8 8 8 9 9 9 9 8 8
16 16 16 15 15 14 14 13 12 12 11 10 10 9 9 8 8 8 7 7 7 7 7 6 7 7 7 7 7 7 7 7 7 7 8 8 8 9 9 9 9 9 9 9
15 15 15 15 14 14 13 13 12 12 11 10 10 9 9 8 8 7 7 7 7 7 6 6 7 7 7 7 7 7 7 7 7 7 8 8 8 9 9 9 9 9 9 9
14 14 14 14 14 14 13 12 12 11 11 11 10 9 9 8 8 8 7 7 7 6 6 6 7 7 7 6 7 7 7 7 7 7 8 8 8 9 9 9 9 9 10 10
14 13 14 14 14 14 13 12 12 12 12 11 10 9 9 8 8 7 7 6 6 6 6 6 6 6 6 6 7 7 7 7 7 7 8 8 8 8 9 9 9 9 10 10
13 13 13 13 13 13 13 12 12 12 11 11 10 9 9 8 8 7 6 6 6 6 6 6 6 6 6 7 7 7 7 7 7 7 7 8 8 8 9 9 9 9 10 10
Wind_Speed
3 2 1 1 0 2 4 6 8 11 13 11 9 10 12 13 15 16 17 17 17 17 17 18 19 19 19 19 19 19 19 20 20 20 20 20 19 19 18 18 19 18 17 18
1 1 2 3 3 2 4 6 10 12 11 7 9 11 13 15 16 17 17 18 19 19 19 19 20 20 20 20 19 19 20 20 20 20 20 20 19 19 18 17 17 17 18 18
3 1 6 5 4 4 5 8 10 11 12 13 14 14 15 16 15 16 18 19 20 20 20 19 20 19 20 19 19 19 20 20 19 19 19 19 19 19 18 17 17 17 17 17
5 4 5 3 3 2 7 10 8 9 11 12 14 15 15 12 12 16 18 19 19 19 20 19 19 19 19 19 19 19 19 19 19 18 19 18 18 18 17 16 15 15 16 16
5 7 7 3 3 2 7 11 4 7 11 13 14 15 11 9 13 16 17 18 18 19 19 19 19 19 19 19 19 19 19 18 18 18 18 18 18 18 16 15 15 14 13 15
6 9 7 1 5 0 5 5 2 7 11 13 14 14 12 15 16 17 17 17 17 18 19 18 18 18 19 19 19 19 18 18 18 18 17 17 17 17 15 14 14 14 13 13
9 9 5 6 5 3 6 7 5 8 10 12 12 12 15 17 16 16 17 17 18 18 17 17 17 17 18 19 18 18 18 18 18 17 17 16 16 14 13 12 12 12 12 12
6 7 2 8 4 3 5 4 6 8 9 11 12 14 15 15 16 17 17 18 18 17 17 17 16 16 18 18 18 17 17 17 18 17 15 14 14 13 11 10 10 10 10 10
4 3 4 4 3 1 2 5 6 7 9 10 12 13 15 15 16 16 16 17 17 17 18 17 16 16 18 17 17 17 17 17 16 16 14 13 12 11 9 8 7 7 7 7
6 6 4 5 5 4 4 5 5 6 8 9 12 13 14 14 15 15 15 16 16 17 17 17 17 17 17 17 16 16 17 16 15 14 13 11 9 8 7 6 6 6 5 6
9 7 5 6 6 5 4 4 5 6 7 9 11 13 14 14 14 14 15 15 15 16 17 17 17 17 17 16 16 16 16 14 14 12 11 10 8 7 7 6 5 5 5 4
8 4 5 2 3 4 5 5 5 6 7 8 9 12 13 13 13 14 15 15 15 16 17 17 17 17 16 15 15 15 14 13 11 10 9 8 8 7 3 5 4 5 6 6
5 3 3 3 4 4 4 4 4 5 6 8 9 10 12 13 13 14 15 15 16 16 16 16 16 16 16 16 16 15 14 12 10 10 9 8 8 7 5 2 3 4 4 5
6 5 5 6 5 5 4 3 4 4 5 7 8 10 11 12 13 14 15 15 15 16 15 15 15 16 16 16 15 15 13 11 10 9 9 8 7 7 5 5 3 1 1 2
10 10 7 5 6 6 5 4 5 5 5 7 8 9 11 12 14 14 14 14 14 15 15 15 15 16 16 15 15 14 12 10 10 9 8 8 7 7 6 5 3 2 1 2
11 11 9 8 8 7 7 6 6 5 5 6 8 9 11 12 13 13 13 13 14 15 14 14 15 16 16 15 14 11 10 10 11 9 8 7 7 6 6 5 4 2 1 1
12 13 13 12 10 9 8 6 5 4 5 6 8 9 11 12 13 13 14 14 13 13 12 13 15 16 15 14 13 10 10 9 10 9 8 7 7 6 5 5 4 3 2 2
13 12 11 11 10 9 8 6 5 4 4 5 7 8 10 11 13 14 14 14 13 13 13 14 16 16 14 13 12 10 9 9 8 8 8 7 7 6 6 5 4 3 2 2
11 11 10 9 8 8 7 5 4 4 3 4 6 8 9 10 11 12 13 13 13 13 15 16 17 15 14 14 15 9 9 9 8 7 7 6 6 7 6 6 5 4 4 3
10 11 11 10 9 8 7 6 5 4 4 4 5 7 8 10 11 11 12 11 8 10 14 15 15 13 14 14 16 10 9 9 8 8 7 7 7 6 6 5 5 5 4 4
9 11 11 11 10 9 7 7 6 5 4 4 5 7 8 9 10 10 10 10 10 12 14 13 10 11 12 14 14 9 9 8 8 8 7 7 7 6 6 5 5 5 5 5
8 10 11 11 10 9 8 8 7 6 5 5 5 6 7 8 9 9 8 7 10 11 12 10 10 13 17 16 9 8 8 8 8 7 7 7 6 6 6 6 6 6 6 5
7 9 10 10 10 9 9 9 8 7 6 5 5 6 6 7 7 8 8 8 9 12 11 8 12 16 19 11 8 8 8 8 7 7 7 7 6 6 5 6 6 6 6 6
8 8 9 9 9 9 10 10 9 7 7 6 5 4 5 6 6 5 7 6 7 10 9 8 11 15 14 7 7 8 7 7 7 7 6 6 6 6 5 6 6 6 6 7
8 9 9 10 10 10 10 9 9 9 8 6 5 4 3 4 5 6 6 8 8 9 9 7 8 11 9 7 7 7 7 7 8 7 6 6 6 5 5 5 5 5 5 6
9 9 9 10 10 8 8 8 9 8 7 6 5 3 2 2 3 4 5 6 8 8 7 7 8 8 8 8 8 8 7 7 7 7 7 6 6 6 6 6 7 6 6 6
11 10 9 9 9 9 9 9 9 8 8 7 5 3 2 2 2 3 4 5 6 6 6 7 7 7 7 8 8 7 7 7 7 7 7 6 6 6 5 5 5 5 5 6
Wind_Direction
31 24 310 305 319 359 356 345 325 326 321 332 341 327 321 319 319 319 320 322 322 321 318 316 313 312 310 309 308 307 304 300 299 297 294 290 286 282 278 274 270 264 258 253
216 193 275 249 237 279 323 326 321 316 324 355 328 317 318 320 321 321 322 323 322 319 317 316 315 313 312 309 308 307 303 300 299 298 295 292 288 284 279 273 270 268 261 255
293 264 271 244 219 258 308 324 319 316 327 331 321 323 322 320 319 322 323 322 320 319 317 316 314 314 311 310 309 306 303 301 300 298 295 292 290 287 282 277 271 267 261 256
295 281 284 69 109 283 304 311 312 308 319 325 321 321 313 313 324 324 322 320 320 318 317 316 316 315 314 312 310 307 304 303 302 299 296 294 291 288 285 279 273 267 264 259
284 289 288 165 184 279 309 308 316 315 321 322 324 314 313 1 339 325 321 320 318 318 317 317 317 319 317 312 310 308 306 306 304 301 299 296 291 287 286 281 274 267 261 259
271 291 298 95 129 123 290 290 62 321 319 323 322 317 331 344 332 325 323 321 320 319 318 318 321 321 316 312 311 310 310 309 306 303 299 295 292 290 286 281 275 269 261 255
270 278 287 115 135 209 293 351 353 323 320 319 321 314 318 324 326 324 322 321 322 321 320 320 320 319 314 312 312 314 312 309 305 302 301 295 292 289 286 281 275 268 263 255
266 273 280 134 174 270 328 343 319 318 319 319 316 315 319 323 323 323 323 324 326 323 321 322 322 321 316 314 316 315 312 308 307 307 304 302 299 294 289 282 275 266 259 255
266 307 92 173 225 289 308 301 313 316 321 319 316 319 323 323 323 324 324 326 326 325 323 323 326 325 319 319 320 317 314 312 312 311 308 306 302 301 297 285 275 269 259 254
254 254 221 213 228 238 255 282 303 310 314 316 317 320 323 323 322 324 326 327 327 327 324 325 328 326 322 322 323 319 317 317 315 314 314 314 310 305 301 295 287 281 267 258
253 260 241 220 224 235 241 260 283 299 311 316 318 319 322 321 323 325 325 327 327 326 324 325 328 325 325 327 325 322 321 320 319 321 323 320 317 316 314 308 298 288 285 272
264 244 237 217 178 206 227 251 278 296 305 313 317 319 321 321 323 323 324 326 327 328 327 327 327 326 329 330 328 325 323 324 325 329 330 326 324 323 306 291 293 274 277 287
250 209 205 155 170 192 220 246 267 283 301 312 318 319 320 320 321 323 324 328 330 329 326 327 328 328 332 333 329 327 325 327 328 332 330 331 332 331 336 321 234 245 262 271
200 188 195 201 199 195 215 232 259 279 298 310 316 320 321 321 323 325 328 330 330 327 327 330 331 331 334 332 329 328 327 329 329 332 331 333 334 332 336 342 344 346 199 231
205 208 214 192 187 189 206 225 253 279 302 311 318 322 325 324 324 325 328 331 330 328 332 334 333 334 334 332 330 329 330 336 335 333 335 337 338 340 346 349 352 2 56 113
206 206 205 199 202 203 213 230 256 285 303 311 319 325 326 323 323 325 331 335 332 331 333 334 335 334 333 331 331 330 331 333 329 330 338 345 349 351 353 356 358 11 42 43
201 205 208 210 210 211 219 232 254 282 299 309 320 323 324 325 327 332 336 336 332 329 335 340 338 334 332 333 333 332 332 335 327 332 351 354 352 352 355 0 10 18 32 44
214 216 208 208 207 206 210 219 233 256 283 305 314 321 326 329 330 332 333 332 331 336 346 346 341 333 333 337 335 331 330 333 343 350 355 358 351 355 2 10 22 29 40 71
213 208 198 192 191 192 196 204 217 237 264 293 310 318 323 326 329 329 331 330 334 340 344 341 335 332 337 340 336 329 332 338 344 352 359 358 357 13 21 26 26 29 36 40
207 199 192 186 183 186 189 192 204 222 246 279 300 311 320 327 330 330 330 327 345 346 335 332 332 337 339 338 333 330 335 340 345 351 360 6 13 19 26 31 29 28 34 46
210 201 195 191 187 189 192 194 205 221 241 266 289 307 317 323 327 329 328 331 346 351 337 325 335 343 339 331 320 331 341 345 348 351 358 4 10 21 30 36 38 38 42 51
223 211 204 198 194 195 195 197 205 217 234 257 279 300 312 318 325 328 328 337 340 351 337 334 344 344 336 326 331 340 344 346 348 353 357 0 9 21 29 33 41 42 42 50
248 227 214 205 203 205 202 204 206 212 226 248 271 291 308 318 322 324 328 346 341 340 330 338 344 337 330 331 341 344 348 349 349 351 353 354 3 17 27 33 41 40 43 50
268 243 228 213 205 208 211 213 210 213 221 233 248 268 290 303 312 328 334 337 342 333 331 347 341 332 326 342 348 348 351 351 349 349 352 356 3 16 28 33 39 45 50 55
278 255 237 221 213 214 214 214 213 213 220 228 235 234 261 297 314 325 329 333 344 335 336 347 340 330 340 353 351 350 351 353 347 342 351 359 6 16 28 35 38 45 51 56
277 257 243 231 227 224 214 213 219 217 216 222 226 223 251 288 306 316 325 336 343 340 341 348 349 345 352 353 353 353 352 348 348 354 0 5 10 16 28 33 38 42 51 60
270 257 243 237 231 225 220 215 216 218 216 215 215 201 212 262 302 326 334 342 345 351 354 355 355 354 353 352 353 355 355 353 355 358 359 5 7 8 19 26 31 37 46 59
Height
1497 1497 1497 1500 1501 1500 1502 1504 1505 1503 1501 1498 1501 1504 1505 1504 1503 1501 1499 1497 1494 1491 1488 1484 1480 1476 1471 1467 1463 1459 1454 1450 1446 1442 1439 1436 1433 1431 1429 1428 1427 1427 1427 1427
1499 1498 1498 1501 1501 1502 1502 1502 1501 1500 1498 1499 1503 1503 1503 1502 1500 1498 1496 1494 1491 1487 1483 1479 1475 1470 1465 1461 1456 1452 1447 1442 1438 1434 1430 1427 1424 1421 1419 1418 1417 1416 1416 1417
1497 1497 1500 1501 1499 1501 1501 1499 1501 1501 1500 1499 1500 1501 1501 1500 1498 1496 1494 1491 1487 1483 1479 1474 1470 1465 1459 1454 1449 1444 1440 1435 1430 1426 1422 1418 1415 1412 1410 1408 1407 1406 1406 1407
1495 1501 1510 1500 1497 1499 1501 1499 1497 1498 1499 1500 1501 1500 1499 1497 1496 1494 1492 1488 1483 1479 1474 1469 1464 1459 1454 1448 1443 1438 1433 1428 1423 1418 1413 1409 1406 1403 1400 1399 1397 1396 1396 1397
1496 1498 1496 1496 1497 1498 1500 1498 1497 1499 1500 1500 1499 1497 1492 1494 1494 1492 1489 1484 1480 1475 1470 1464 1459 1454 1448 1442 1437 1431 1426 1420 1415 1410 1406 1401 1397 1394 1391 1389 1388 1387 1387 1388
1495 1503 1502 1493 1495 1499 1501 1496 1497 1499 1499 1499 1497 1493 1490 1493 1491 1488 1485 1480 1475 1470 1465 1460 1454 1448 1442 1437 1431 1425 1420 1414 1409 1404 1399 1394 1389 1385 1383 1381 1379 1379 1378 1379
1493 1496 1488 1490 1496 1499 1501 1498 1499 1499 1499 1498 1496 1496 1494 1491 1488 1485 1481 1476 1471 1466 1460 1455 1449 1444 1437 1431 1426 1420 1414 1408 1402 1397 1392 1387 1382 1378 1375 1373 1372 1371 1370 1370
1492 1496 1493 1491 1494 1495 1497 1498 1498 1498 1498 1497 1496 1494 1491 1488 1485 1481 1477 1472 1467 1462 1456 1451 1445 1439 1433 1427 1420 1414 1408 1402 1396 1391 1386 1381 1376 1372 1369 1367 1365 1364 1364 1364
1486 1488 1489 1490 1492 1494 1496 1496 1497 1496 1496 1495 1493 1491 1488 1485 1482 1478 1473 1469 1464 1458 1452 1447 1441 1435 1428 1422 1415 1409 1403 1397 1391 1385 1380 1376 1372 1368 1365 1362 1361 1360 1359 1359
1486 1483 1487 1490 1491 1493 1494 1495 1495 1495 1494 1493 1491 1488 1486 1482 1479 1475 1470 1465 1460 1455 1449 1443 1437 1431 1425 1418 1411 1405 1399 1393 1387 1381 1376 1372 1368 1365 1362 1359 1357 1356 1356 1356
1484 1483 1486 1487 1489 1491 1492 1492 1492 1492 1492 1490 1489 1486 1483 1479 1476 1472 1467 1462 1457 1451 1446 1440 1433 1427 1421 1415 1408 1402 1396 1390 1384 1379 1374 1369 1366 1362 1360 1357 1356 1355 1354 1354
1479 1479 1482 1484 1487 1488 1489 1490 1490 1490 1489 1488 1486 1483 1480 1477 1473 1469 1464 1459 1454 1448 1443 1436 1430 1424 1418 1412 1405 1399 1393 1388 1383 1378 1373 1369 1365 1361 1358 1356 1354 1353 1352 1352
1478 1480 1481 1483 1485 1486 1487 1487 1487 1487 1486 1485 1483 1481 1478 1474 1470 1466 1462 1457 1451 1446 1440 1434 1428 1421 1415 1409 1403 1398 1392 1387 1382 1377 1372 1368 1365 1361 1358 1356 1354 1352 1351 1351
1478 1479 1480 1482 1483 1483 1484 1485 1485 1484 1484 1482 1481 1478 1475 1471 1467 1463 1459 1454 1448 1443 1437 1432 1425 1419 1413 1407 1401 1396 1391 1386 1382 1377 1372 1368 1365 1361 1358 1356 1354 1352 1351 1350
1474 1476 1477 1479 1480 1480 1481 1482 1482 1482 1481 1480 1478 1475 1472 1469 1465 1461 1456 1451 1446 1441 1435 1429 1423 1417 1411 1405 1400 1395 1391 1386 1381 1377 1373 1369 1365 1362 1359 1356 1354 1352 1351 1350
1471 1473 1474 1475 1476 1477 1478 1479 1479 1478 1478 1477 1475 1473 1470 1466 1462 1458 1454 1449 1443 1438 1433 1427 1421 1415 1410 1404 1399 1395 1390 1386 1381 1377 1374 1370 1366 1362 1359 1357 1355 1353 1352 1351
1466 1468 1469 1471 1472 1474 1475 1475 1475 1475 1475 1474 1472 1470 1467 1463 1460 1456 1451 1446 1441 1437 1432 1426 1420 1414 1409 1404 1399 1395 1391 1387 1382 1378 1375 1371 1367 1364 1361 1358 1356 1354 1353 1351
1461 1463 1465 1466 1468 1469 1471 1472 1472 1472 1472 1471 1469 1467 1464 1461 1457 1453 1448 1443 1439 1435 1431 1425 1419 1413 1408 1404 1399 1395 1391 1387 1384 1380 1376 1373 1369 1366 1363 1360 1358 1356 1354 1353
1457 1459 1461 1463 1464 1466 1467 1468 1468 1469 1468 1467 1466 1464 1461 1458 1455 1451 1446 1441 1437 1433 1428 1423 1417 1412 1408 1403 1399 1395 1392 1388 1385 1382 1378 1375 1371 1368 1365 1363 1360 1359 1357 1355
1454 1456 1458 1459 1461 1462 1463 1464 1465 1465 1464 1464 1462 1460 1458 1455 1452 1448 1444 1441 1437 1432 1426 1421 1416 1412 1407 1403 1399 1396 1393 1390 1386 1384 1380 1377 1374 1371 1369 1366 1364 1362 1359 1357
1452 1453 1454 1456 1457 1459 1460 1460 1461 1462 1461 1460 1459 1457 1455 1452 1449 1445 1442 1439 1435 1430 1425 1420 1416 1411 1407 1403 1400 1397 1394 1391 1388 1385 1383 1380 1377 1375 1372 1370 1368 1366 1364 1362
1449 1450 1451 1453 1454 1455 1456 1456 1457 1457 1458 1457 1456 1454 1452 1449 1447 1443 1440 1437 1432 1427 1423 1419 1415 1411 1407 1403 1400 1397 1395 1392 1389 1387 1385 1382 1380 1378 1376 1374 1372 1370 1368 1366
1447 1448 1448 1449 1451 1452 1452 1453 1453 1453 1453 1453 1453 1451 1449 1446 1444 1441 1439 1435 1430 1425 1421 1418 1414 1410 1407 1404 1401 1398 1395 1393 1390 1388 1386 1384 1383 1381 1379 1377 1375 1373 1372 1370
1444 1444 1445 1445 1446 1447 1448 1449 1449 1449 1449 1448 1448 1447 1445 1443 1441 1439 1435 1431 1427 1423 1420 1417 1413 1410 1407 1404 1401 1398 1396 1394 1392 1390 1388 1386 1385 1384 1382 1381 1379 1378 1376 1375
1441 1441 1441 1441 1440 1441 1442 1444 1444 1444 1445 1445 1444 1443 1442 1440 1438 1436 1432 1429 1425 1422 1419 1416 1413 1409 1407 1404 1401 1399 1397 1395 1393 1391 1390 1389 1387 1386 1385 1384 1383 1382 1381 1380
1437 1436 1435 1434 1435 1436 1437 1439 1440 1440 1441 1441 1440 1439 1438 1437 1434 1432 1430 1427 1424 1420 1418 1415 1412 1409 1407 1404 1402 1400 1398 1396 1394 1393 1392 1391 1390 1389 1388 1387 1386 1385 1385 1385
1432 1430 1429 1428 1428 1429 1430 1432 1433 1434 1435 1435 1435 1434 1434 1433 1431 1430 1427 1425 1422 1419 1417 1414 1411 1409 1407 1404 1402 1400 1398 1397 1395 1394 1393 1392 1392 1391 1390 1390 1390 1389 1389 1389